Left ArrowRight Arrow

30.21309, -93.2044

Hourly Observations for June 17, 2024

Temp ( °F °C ) Dew Point ( °F °C ) Humidity (%) Winds ( mph kmh ) Pressure ( in mb ) Visibility ( mi km ) Precip ( " mm )
12:15 am 00:15 Partly Cloudy with Rain 77 25.2 71 21.9 82 82 SE 7 11 29.91 1013 7 11 0.00 0.00
12:35 am 00:35 Mostly Cloudy with Light Rain 77 24.8 74 23.1 90 90 SE 3 6 29.91 1013 10 16 0.00 0.00
12:55 am 00:55 Mostly Cloudy 78 25.3 75 23.8 91 91 ESE 6 9 29.90 1013 10 16 0.01 0.25
1:15 am 01:15 Partly Cloudy 78 25.3 75 24.1 93 93 E 3 6 29.90 1013 10 16 0.00 0.00
1:35 am 01:35 Partly Cloudy 77 25.1 75 24 94 94 ESE 6 9 29.89 1012 10 16 0.00 0.00
1:55 am 01:55 Clear 78 25.5 76 24.3 93 93 SE 7 11 29.89 1012 10 16 0.00 0.00
2:15 am 02:15 Clear 78 25.8 76 24.2 91 91 SE 9 15 29.89 1012 10 16 0.00 0.00
2:35 am 02:35 Clear 79 26.1 76 24.3 90 90 SE 6 9 29.88 1012 10 16 0.00 0.00
2:55 am 02:55 Clear 78 25.8 76 24.2 91 91 ESE 5 7 29.88 1012 10 16 0.00 0.00
3:15 am 03:15 Clear 78 25.7 76 24.3 92 92 ENE 5 7 29.88 1012 10 16 0.00 0.00
3:35 am 03:35 Clear 78 25.6 76 24.2 92 92 ENE 3 6 29.89 1012 10 16 0.00 0.00
3:55 am 03:55 Partly Cloudy 78 25.6 76 24.2 92 92 ENE 6 9 29.89 1012 10 16 0.00 0.00
4:15 am 04:15 Partly Cloudy 78 25.6 76 24.3 93 93 ENE 7 11 29.89 1012 10 16 0.00 0.00
4:35 am 04:35 Clear 78 25.4 75 24.1 93 93 E 6 9 29.88 1012 10 16 0.00 0.00
4:55 am 04:55 Partly Cloudy with Nearby Thunderstorms 78 25.5 76 24.3 93 93 E 6 9 29.88 1012 10 16 0.00 0.00
5:15 am 05:15 Partly Cloudy 78 25.3 76 24.2 94 94 E 6 9 29.88 1012 10 16 0.00 0.00
5:35 am 05:35 Partly Cloudy 77 25.1 75 24 94 94 E 5 7 29.88 1012 10 16 0.00 0.00
6:00 am 06:00 Mostly Cloudy with Thunderstorms 77 25 75 24 94 94 ENE 7 11 29.89 1012 7 11 0.00 0.00
6:17 am 06:17 Cloudy with Thunderstorms 79 26 75 24 89 89 E 23 37 29.90 1013 2 3 0.00 0.00
6:53 am 06:53 Cloudy with Thunderstorms 73 23 72 22 94 94 ENE 7 11 29.91 1013 6 10 0.00 0.00
7:51 am 07:51 Cloudy with Thunderstorms 73 23 72 22 94 94 ENE 17 28 29.94 1014 5 8 0.00 0.00
8:17 am 08:17 Cloudy with Thunderstorms 73 23 72 22 94 94 ESE 24 39 29.96 1015 2 3 0.00 0.00
8:45 am 08:45 Cloudy with Thunderstorms 73 23 68 20 83 83 SSE 14 22 29.95 1014 2 3 0.00 0.00
9:23 am 09:23 Cloudy with Mist and Fog 75 24 70 21 83 83 WSW 3 6 29.92 1013 6 10 0.00 0.00
9:46 am 09:46 Cloudy with Mist and Fog 75 24 70 21 83 83 WSW 3 6 29.92 1013 6 10 0.00 0.00
10:51 am 10:51 Sunny 84 29 73 23 70 70 ENE 3 6 29.93 1014 10 16 0.00 0.00
11:55 am 11:55 Sunny 84 29 73 23 70 70 ENE 3 6 29.92 1013 10 16 0.00 0.00
12:52 pm 12:52 Partly Cloudy 84 29 75 24 74 74 ESE 14 22 29.92 1013 10 16 0.00 0.00
1:50 pm 13:50 Partly Cloudy 82 28 77 25 84 84 SE 10 17 29.90 1013 10 16 0.00 0.00
2:45 pm 14:45 Partly Cloudy 84 29 75 24 74 74 ESE 15 24 29.90 1013 10 16 0.00 0.00
3:48 pm 15:48 Mostly Cloudy 88 31 73 23 63 63 SE 15 24 29.90 1013 10 16 0.00 0.00
4:52 pm 16:52 Partly Cloudy 82 28 73 23 74 74 SSE 23 37 29.90 1013 10 16 0.00 0.00
5:55 pm 17:55 Partly Cloudy 81 27 73 23 79 79 ESE 15 24 29.92 1013 10 16 0.00 0.00
6:54 pm 18:54 Mostly Cloudy 79 26 73 23 84 84 E 10 17 29.91 1013 10 16 0.00 0.00
7:51 pm 19:51 Sunny 79 26 73 23 84 84 E 8 13 29.91 1013 10 16 0.00 0.00
8:47 pm 20:47 Clear 77 25 73 23 89 89 E 6 9 29.91 1013 10 16 0.00 0.00
9:55 pm 21:55 Clear 75 24 73 23 94 94 E 7 11 29.93 1014 10 16 0.00 0.00
10:15 pm 22:15 Clear 77 24.8 73 22.6 88 88 E 7 11 29.93 1014 10 16 0.00 0.00
10:35 pm 22:35 Clear 77 24.8 73 22.6 88 88 E 7 11 29.93 1014 10 16 0.00 0.00
10:55 pm 22:55 Clear 77 24.8 72 22.4 87 87 E 7 11 29.94 1014 10 16 0.00 0.00
11:15 pm 23:15 Clear 76 24.6 72 22.4 88 88 E 7 11 29.93 1014 10 16 0.00 0.00
11:35 pm 23:35 Clear 76 24.7 73 22.5 88 88 E 7 11 29.93 1014 10 16 0.00 0.00
11:55 pm 23:55 Clear 76 24.6 73 22.5 88 88 E 8 13 29.93 1014 10 16 0.00 0.00

Powered by Vaisala Xweather